Location: Unspecified
(0.0000°N, 0.0000°E)
Time: 01:47:23
(UTC+00:00)

Courier 1B Rocket - Pass Details

Date: 27 October 2021
Orbit: 920 x 1202 km, 28.3° (Epoch: 27 November)

Event Time Altitude Azimuth Distance (km) Brightness Sun altitude
Rises 19:06:15 0° 328° (NNW) 3,556 8.2 -20.0°
Reaches altitude 10° 19:10:04 10° 350° (N) 2,599 7.2 -21.0°
Enters shadow 19:12:40 15° 15° (NNE) 2,260 6.6 -21.6°
